Starlink 30996

operational
NORAD ID: 59023 Int'l Des: 2024-038 Owner: SPXS Country: US Constellation: starlink
LEOCIRCULAR

Starlink 30996について

説明を読み込み中...

リアルタイム位置

3D地球を読み込み中...

次回通過

高度履歴

Altitude vs Time

uPlot chart will show altitude changes over time

軌道要素

1 59023U 24038A 25260.12701566 -.00000822 00000-0 -20346-4 0 9992
2 59023 43.0019 287.2436 0001039 272.8467 87.2266 15.27568377 89581
Epoch: Sep 17, 2025 • Age: 20 hours

現在のステータス

高度 493.6 km
速度 7.62 km/s
衛星直下点 -37.92°S, 118.35°W
打ち上げ日 Feb 25, 2024
運用期間 1.5 years
タイプ internet

技術仕様

分類 Payload
質量 730.00 kg
乾燥質量 700.00 kg
総質量 730.00 kg
長さ 0.30 m
直径 4.10 m
スパン 29.00 m
形状 Box + pan
製造者 SPXS
バスタイプ Starlink V2M
フェーズステータス In Orbit
所有者/国 SPXS/US

大規模コンステレーション

Loading constellations...